User: anonymous
Location: Unspecified
(0.0000°N, 0.0000°E)
Time: 14:46:36
(UTC+00:00)
Language:

Aussat K3 - Orbit

View from above orbital plane
View from above orbital plane
View from above satellite
View from above satellite

Ground track
Ground track

The orbit data is extracted from the following two-line orbital elements,

1 18350U 87078A   14111.16945394 -.00000246  00000-0  00000+0 0   999
2 18350 013.6190 030.5145 0003503 288.4660 273.8792 00.98907957 96605
Epoch (UTC): 21 April 2014 04:04:00
Eccentricity: 0.0003503
inclination: 13.6190°
perigee height: 36158 km
apogee height: 36188 km
right ascension of ascending node: 30.5145°
argument of perigee: 288.4660°
revolutions per day: 0.98907957
mean anomaly at epoch: 273.8792°
orbit number at epoch: 9660

The dashed part of the orbit path shows where the satellite is in the earth's shadow,  

DLR